Year,Month,Day,Hour,Minute,Value (Times are PST for temperature in C)
2014,06,14,00,00,14.20
2014,06,14,00,01,14.20
2014,06,14,00,02,14.20
2014,06,14,00,03,14.20
2014,06,14,00,04,14.20
2014,06,14,00,05,14.20
2014,06,14,00,06,14.20
2014,06,14,00,07,14.10
2014,06,14,00,08,14.10
2014,06,14,00,09,14.00
2014,06,14,00,10,14.00
2014,06,14,00,11,14.00
2014,06,14,00,12,13.90
2014,06,14,00,13,13.90
2014,06,14,00,14,13.80
2014,06,14,00,15,13.80
2014,06,14,00,16,13.80
2014,06,14,00,17,13.80
2014,06,14,00,18,13.80
2014,06,14,00,19,13.70
2014,06,14,00,20,13.70
2014,06,14,00,21,13.60
2014,06,14,00,22,13.60
2014,06,14,00,23,13.60
2014,06,14,00,24,13.60
2014,06,14,00,25,13.60
2014,06,14,00,26,13.50
2014,06,14,00,27,13.50
2014,06,14,00,28,13.40
2014,06,14,00,29,13.40
2014,06,14,00,30,13.40
2014,06,14,00,31,13.50
2014,06,14,00,32,13.50
2014,06,14,00,33,13.50
2014,06,14,00,34,13.50
2014,06,14,00,35,13.60
2014,06,14,00,36,13.50
2014,06,14,00,37,13.50
2014,06,14,00,38,13.40
2014,06,14,00,39,13.40
2014,06,14,00,40,13.30
2014,06,14,00,41,13.30
2014,06,14,00,42,13.30
2014,06,14,00,43,13.20
2014,06,14,00,44,13.20
2014,06,14,00,45,13.20
2014,06,14,00,46,13.20
2014,06,14,00,47,13.20
2014,06,14,00,48,13.20
2014,06,14,00,49,13.30
2014,06,14,00,50,13.40
2014,06,14,00,51,13.40
2014,06,14,00,52,13.50
2014,06,14,00,53,13.50
2014,06,14,00,54,13.60
2014,06,14,00,55,13.60
2014,06,14,00,56,13.70
2014,06,14,00,57,13.70
2014,06,14,00,58,13.70
2014,06,14,00,59,13.80
2014,06,14,01,00,13.80
2014,06,14,01,01,13.80
2014,06,14,01,02,13.90
2014,06,14,01,03,13.90
2014,06,14,01,04,13.90
2014,06,14,01,05,13.90
2014,06,14,01,06,13.90
2014,06,14,01,07,13.90
2014,06,14,01,08,13.90
2014,06,14,01,09,13.90
2014,06,14,01,10,13.90
2014,06,14,01,11,14.00
2014,06,14,01,12,14.00
2014,06,14,01,13,14.00
2014,06,14,01,14,14.00
2014,06,14,01,15,14.00
2014,06,14,01,16,14.00
2014,06,14,01,17,14.10
2014,06,14,01,18,14.00
2014,06,14,01,19,14.10
2014,06,14,01,20,14.10
2014,06,14,01,21,14.10
2014,06,14,01,22,14.10
2014,06,14,01,23,14.10
2014,06,14,01,24,14.10
2014,06,14,01,25,14.10
2014,06,14,01,26,14.10
2014,06,14,01,27,14.00
2014,06,14,01,28,14.10
2014,06,14,01,29,14.00
2014,06,14,01,30,14.00
2014,06,14,01,31,14.00
2014,06,14,01,32,14.00
2014,06,14,01,33,14.00
2014,06,14,01,34,14.00
2014,06,14,01,35,14.00
2014,06,14,01,36,14.00
2014,06,14,01,37,13.90
2014,06,14,01,38,13.90
2014,06,14,01,39,13.90
2014,06,14,01,40,13.90
2014,06,14,01,41,13.90
2014,06,14,01,42,13.90
2014,06,14,01,43,13.90
2014,06,14,01,44,13.90
2014,06,14,01,45,13.90
2014,06,14,01,46,13.90
2014,06,14,01,47,13.90
2014,06,14,01,48,13.90
2014,06,14,01,49,13.90
2014,06,14,01,50,13.80
2014,06,14,01,51,13.80
2014,06,14,01,52,13.80
2014,06,14,01,53,13.80
2014,06,14,01,54,13.80
2014,06,14,01,55,13.80
2014,06,14,01,56,13.80
2014,06,14,01,57,13.80
2014,06,14,01,58,13.80
2014,06,14,01,59,13.80
2014,06,14,02,00,13.80
2014,06,14,02,01,13.70
2014,06,14,02,02,13.70
2014,06,14,02,03,13.70
2014,06,14,02,04,13.70
2014,06,14,02,05,13.70
2014,06,14,02,06,13.70
2014,06,14,02,07,13.70
2014,06,14,02,08,13.70
2014,06,14,02,09,13.70
2014,06,14,02,10,13.70
2014,06,14,02,11,13.70
2014,06,14,02,12,13.70
2014,06,14,02,13,13.70
2014,06,14,02,14,13.70
2014,06,14,02,15,13.70
2014,06,14,02,16,13.70
2014,06,14,02,17,13.70
2014,06,14,02,18,13.70
2014,06,14,02,19,13.70
2014,06,14,02,20,13.60
2014,06,14,02,21,13.60
2014,06,14,02,22,13.60
2014,06,14,02,23,13.60
2014,06,14,02,24,13.60
2014,06,14,02,25,13.60
2014,06,14,02,26,13.60
2014,06,14,02,27,13.60
2014,06,14,02,28,13.60
2014,06,14,02,29,13.60
2014,06,14,02,30,13.60
2014,06,14,02,31,13.60
2014,06,14,02,32,13.60
2014,06,14,02,33,13.60
2014,06,14,02,34,13.60
2014,06,14,02,35,13.50
2014,06,14,02,36,13.50
2014,06,14,02,37,13.50
2014,06,14,02,38,13.50
2014,06,14,02,39,13.50
2014,06,14,02,40,13.50
2014,06,14,02,41,13.50
2014,06,14,02,42,13.50
2014,06,14,02,43,13.60
2014,06,14,02,44,13.60
2014,06,14,02,45,13.60
2014,06,14,02,46,13.60
2014,06,14,02,47,13.60
2014,06,14,02,48,13.60
2014,06,14,02,49,13.60
2014,06,14,02,50,13.70
2014,06,14,02,51,13.70
2014,06,14,02,52,13.70
2014,06,14,02,53,13.70
2014,06,14,02,54,13.70
2014,06,14,02,55,13.70
2014,06,14,02,56,13.70
2014,06,14,02,57,13.70
2014,06,14,02,58,13.80
2014,06,14,02,59,13.80
2014,06,14,03,00,13.80
2014,06,14,03,01,13.80
2014,06,14,03,02,13.80
2014,06,14,03,03,13.80
2014,06,14,03,04,13.80
2014,06,14,03,05,13.80
2014,06,14,03,06,13.80
2014,06,14,03,07,13.80
2014,06,14,03,08,13.80
2014,06,14,03,09,13.80
2014,06,14,03,10,13.80
2014,06,14,03,11,13.80
2014,06,14,03,12,13.80
2014,06,14,03,13,13.80
2014,06,14,03,14,13.80
2014,06,14,03,15,13.80
2014,06,14,03,16,13.80
2014,06,14,03,17,13.80
2014,06,14,03,18,13.80
2014,06,14,03,19,13.80
2014,06,14,03,20,13.80
2014,06,14,03,21,13.80
2014,06,14,03,22,13.80
2014,06,14,03,23,13.80
2014,06,14,03,24,13.80
2014,06,14,03,25,13.80
2014,06,14,03,26,13.80
2014,06,14,03,27,13.80
2014,06,14,03,28,13.80
2014,06,14,03,29,13.80
2014,06,14,03,30,13.80
2014,06,14,03,31,13.80
2014,06,14,03,32,13.80
2014,06,14,03,33,13.80
2014,06,14,03,34,13.80
2014,06,14,03,35,13.80
2014,06,14,03,36,13.80
2014,06,14,03,37,13.70
2014,06,14,03,38,13.70
2014,06,14,03,39,13.70
2014,06,14,03,40,13.70
2014,06,14,03,41,13.70
2014,06,14,03,42,13.70
2014,06,14,03,43,13.70
2014,06,14,03,44,13.70
2014,06,14,03,45,13.70
2014,06,14,03,46,13.70
2014,06,14,03,47,13.70
2014,06,14,03,48,13.70
2014,06,14,03,49,13.70
2014,06,14,03,50,13.70
2014,06,14,03,51,13.70
2014,06,14,03,52,13.70
2014,06,14,03,53,13.70
2014,06,14,03,54,13.70
2014,06,14,03,55,13.70
2014,06,14,03,56,13.70
2014,06,14,03,57,13.70
2014,06,14,03,58,13.70
2014,06,14,03,59,13.70
2014,06,14,04,00,13.70
2014,06,14,04,01,13.70
2014,06,14,04,02,13.70
2014,06,14,04,03,13.70
2014,06,14,04,04,13.70
2014,06,14,04,05,13.70
2014,06,14,04,06,13.70
2014,06,14,04,07,13.70
2014,06,14,04,08,13.70
2014,06,14,04,09,13.70
2014,06,14,04,10,13.70
2014,06,14,04,11,13.70
2014,06,14,04,12,13.70
2014,06,14,04,13,13.70
2014,06,14,04,14,13.70
2014,06,14,04,15,13.70
2014,06,14,04,16,13.70
2014,06,14,04,17,13.70
2014,06,14,04,18,13.70
2014,06,14,04,19,13.70
2014,06,14,04,20,13.70
2014,06,14,04,21,13.70
2014,06,14,04,22,13.70
2014,06,14,04,23,13.70
2014,06,14,04,24,13.70
2014,06,14,04,25,13.70
2014,06,14,04,26,13.70
2014,06,14,04,27,13.70
2014,06,14,04,28,13.70
2014,06,14,04,29,13.70
2014,06,14,04,30,13.70
2014,06,14,04,31,13.70
2014,06,14,04,32,13.70
2014,06,14,04,33,13.60
2014,06,14,04,34,13.60
2014,06,14,04,35,13.60
2014,06,14,04,36,13.60
2014,06,14,04,37,13.60
2014,06,14,04,38,13.50
2014,06,14,04,39,13.50
2014,06,14,04,40,13.50
2014,06,14,04,41,13.50
2014,06,14,04,42,13.40
2014,06,14,04,43,13.40
2014,06,14,04,44,13.40
2014,06,14,04,45,13.40
2014,06,14,04,46,13.40
2014,06,14,04,47,13.30
2014,06,14,04,48,13.30
2014,06,14,04,49,13.30
2014,06,14,04,50,13.20
2014,06,14,04,51,13.20
2014,06,14,04,52,13.20
2014,06,14,04,53,13.10
2014,06,14,04,54,13.10
2014,06,14,04,55,13.10
2014,06,14,04,56,13.00
2014,06,14,04,57,13.00
2014,06,14,04,58,13.00
2014,06,14,04,59,12.90
2014,06,14,05,00,12.90
2014,06,14,05,01,12.80
2014,06,14,05,02,12.80
2014,06,14,05,03,12.80
2014,06,14,05,04,12.80
2014,06,14,05,05,12.70
2014,06,14,05,06,12.70
2014,06,14,05,07,12.70
2014,06,14,05,08,12.70
2014,06,14,05,09,12.70
2014,06,14,05,10,12.60
2014,06,14,05,11,12.60
2014,06,14,05,12,12.60
2014,06,14,05,13,12.60
2014,06,14,05,14,12.50
2014,06,14,05,15,12.50
2014,06,14,05,16,12.50
2014,06,14,05,17,12.40
2014,06,14,05,18,12.40
2014,06,14,05,19,12.40
2014,06,14,05,20,12.40
2014,06,14,05,21,12.40
2014,06,14,05,22,12.40
2014,06,14,05,23,12.30
2014,06,14,05,24,12.30
2014,06,14,05,25,12.30
2014,06,14,05,26,12.30
2014,06,14,05,27,12.30
2014,06,14,05,28,12.20
2014,06,14,05,29,12.20
2014,06,14,05,30,12.20
2014,06,14,05,31,12.20
2014,06,14,05,32,12.20
2014,06,14,05,33,12.20
2014,06,14,05,34,12.20
2014,06,14,05,35,12.20
2014,06,14,05,36,12.10
2014,06,14,05,37,12.10
2014,06,14,05,38,12.10
2014,06,14,05,39,12.10
2014,06,14,05,40,12.10
2014,06,14,05,41,12.10
2014,06,14,05,42,12.10
2014,06,14,05,43,12.10
2014,06,14,05,44,12.10
2014,06,14,05,45,12.10
2014,06,14,05,46,12.10
2014,06,14,05,47,12.00
2014,06,14,05,48,12.00
2014,06,14,05,49,12.00
2014,06,14,05,50,12.00
2014,06,14,05,51,12.00
2014,06,14,05,52,12.00
2014,06,14,05,53,11.90
2014,06,14,05,54,11.90
2014,06,14,05,55,11.90
2014,06,14,05,56,11.90
2014,06,14,05,57,11.90
2014,06,14,05,58,11.90
2014,06,14,05,59,11.90
2014,06,14,06,00,11.90
2014,06,14,06,01,11.90
2014,06,14,06,02,11.80
2014,06,14,06,03,11.80
2014,06,14,06,04,11.80
2014,06,14,06,05,11.80
2014,06,14,06,06,11.80
2014,06,14,06,07,11.80
2014,06,14,06,08,11.80
2014,06,14,06,09,11.80
2014,06,14,06,10,11.80
2014,06,14,06,11,11.90
2014,06,14,06,12,11.90
2014,06,14,06,13,11.90
2014,06,14,06,14,11.90
2014,06,14,06,15,11.90
2014,06,14,06,16,11.80
2014,06,14,06,17,11.80
2014,06,14,06,18,11.80
2014,06,14,06,19,11.80
2014,06,14,06,20,11.80
2014,06,14,06,21,11.90
2014,06,14,06,22,11.90
2014,06,14,06,23,11.90
2014,06,14,06,24,11.90
2014,06,14,06,25,11.90
2014,06,14,06,26,11.90
2014,06,14,06,27,11.90
2014,06,14,06,28,11.90
2014,06,14,06,29,11.90
2014,06,14,06,30,11.90
2014,06,14,06,31,11.90
2014,06,14,06,32,11.90
2014,06,14,06,33,11.90
2014,06,14,06,34,11.90
2014,06,14,06,35,11.90
2014,06,14,06,36,11.80
2014,06,14,06,37,11.80
2014,06,14,06,38,11.90
2014,06,14,06,39,11.90
2014,06,14,06,40,11.90
2014,06,14,06,41,11.90
2014,06,14,06,42,11.90
2014,06,14,06,43,11.90
2014,06,14,06,44,11.90
2014,06,14,06,45,11.90
2014,06,14,06,46,11.90
2014,06,14,06,47,11.90
2014,06,14,06,48,11.90
2014,06,14,06,49,11.90
2014,06,14,06,50,11.90
2014,06,14,06,51,11.90
2014,06,14,06,52,11.90
2014,06,14,06,53,11.90
2014,06,14,06,54,11.90
2014,06,14,06,55,11.90
2014,06,14,06,56,11.90
2014,06,14,06,57,11.90
2014,06,14,06,58,11.90
2014,06,14,06,59,11.90
2014,06,14,07,00,11.90
2014,06,14,07,01,12.00
2014,06,14,07,02,12.00
2014,06,14,07,03,12.00
2014,06,14,07,04,12.00
2014,06,14,07,05,12.00
2014,06,14,07,06,12.00
2014,06,14,07,07,12.00
2014,06,14,07,08,12.00
2014,06,14,07,09,12.00
2014,06,14,07,10,12.00
2014,06,14,07,11,12.00
2014,06,14,07,12,12.10
2014,06,14,07,13,12.10
2014,06,14,07,14,12.10
2014,06,14,07,15,12.10
2014,06,14,07,16,12.10
2014,06,14,07,17,12.00
2014,06,14,07,18,12.00
2014,06,14,07,19,12.00
2014,06,14,07,20,12.00
2014,06,14,07,21,12.00
2014,06,14,07,22,12.00
2014,06,14,07,23,12.00
2014,06,14,07,24,12.00
2014,06,14,07,25,12.00
2014,06,14,07,26,11.90
2014,06,14,07,27,11.90
2014,06,14,07,28,11.90
2014,06,14,07,29,11.90
2014,06,14,07,30,11.90
2014,06,14,07,31,11.90
2014,06,14,07,32,12.00
2014,06,14,07,33,12.00
2014,06,14,07,34,12.00
2014,06,14,07,35,12.10
2014,06,14,07,36,12.10
2014,06,14,07,37,12.00
2014,06,14,07,38,12.00
2014,06,14,07,39,12.00
2014,06,14,07,40,12.00
2014,06,14,07,41,12.00
2014,06,14,07,42,12.00
2014,06,14,07,43,12.10
2014,06,14,07,44,12.10
2014,06,14,07,45,12.20
2014,06,14,07,46,12.20
2014,06,14,07,47,12.20
2014,06,14,07,48,12.20
2014,06,14,07,49,12.20
2014,06,14,07,50,12.20
2014,06,14,07,51,12.10
2014,06,14,07,52,12.10
2014,06,14,07,53,12.10
2014,06,14,07,54,12.10
2014,06,14,07,55,12.10
2014,06,14,07,56,12.10
2014,06,14,07,57,12.10
2014,06,14,07,58,12.10
2014,06,14,07,59,12.10
2014,06,14,08,00,12.10
2014,06,14,08,01,12.10
2014,06,14,08,02,12.10
2014,06,14,08,03,12.10
2014,06,14,08,04,12.10
2014,06,14,08,05,12.10
2014,06,14,08,06,12.10
2014,06,14,08,07,12.10
2014,06,14,08,08,12.10
2014,06,14,08,09,12.10
2014,06,14,08,10,12.10
2014,06,14,08,11,12.10
2014,06,14,08,12,12.10
2014,06,14,08,13,12.10
2014,06,14,08,14,12.20
2014,06,14,08,15,12.20
2014,06,14,08,16,12.20
2014,06,14,08,17,12.20
2014,06,14,08,18,12.10
2014,06,14,08,19,12.10
2014,06,14,08,20,12.10
2014,06,14,08,21,12.20
2014,06,14,08,22,12.20
2014,06,14,08,23,12.20
2014,06,14,08,24,12.20
2014,06,14,08,25,12.20
2014,06,14,08,26,12.20
2014,06,14,08,27,12.20
2014,06,14,08,28,12.20
2014,06,14,08,29,12.20
2014,06,14,08,30,12.20
2014,06,14,08,31,12.20
2014,06,14,08,32,12.20
2014,06,14,08,33,12.20
2014,06,14,08,34,12.20
2014,06,14,08,35,12.20
2014,06,14,08,36,12.20
2014,06,14,08,37,12.20
2014,06,14,08,38,12.20
2014,06,14,08,39,12.20
2014,06,14,08,40,12.20
2014,06,14,08,41,12.20
2014,06,14,08,42,12.20
2014,06,14,08,43,12.20
2014,06,14,08,44,12.20
2014,06,14,08,45,12.20
2014,06,14,08,46,12.20
2014,06,14,08,47,12.20
2014,06,14,08,48,12.20
2014,06,14,08,49,12.20
2014,06,14,08,50,12.20
2014,06,14,08,51,12.20
2014,06,14,08,52,12.20
2014,06,14,08,53,12.20
2014,06,14,08,54,12.30
2014,06,14,08,55,12.30
2014,06,14,08,56,12.30
2014,06,14,08,57,12.30
2014,06,14,08,58,12.30
2014,06,14,08,59,12.30
2014,06,14,09,00,12.30
2014,06,14,09,01,12.30
2014,06,14,09,02,12.40
2014,06,14,09,03,12.40
2014,06,14,09,04,12.40
2014,06,14,09,05,12.40
2014,06,14,09,06,12.30
2014,06,14,09,07,12.30
2014,06,14,09,08,12.30
2014,06,14,09,09,12.30
2014,06,14,09,10,12.40
2014,06,14,09,11,12.40
2014,06,14,09,12,12.40
2014,06,14,09,13,12.50
2014,06,14,09,14,12.50
2014,06,14,09,15,12.50
2014,06,14,09,16,12.50
2014,06,14,09,17,12.50
2014,06,14,09,18,12.50
2014,06,14,09,19,12.50
2014,06,14,09,20,12.50
2014,06,14,09,21,12.40
2014,06,14,09,22,12.40
2014,06,14,09,23,12.40
2014,06,14,09,24,12.40
2014,06,14,09,25,12.40
2014,06,14,09,26,12.40
2014,06,14,09,27,12.40
2014,06,14,09,28,12.50
2014,06,14,09,29,12.50
2014,06,14,09,30,12.50
2014,06,14,09,31,12.40
2014,06,14,09,32,12.40
2014,06,14,09,33,12.40
2014,06,14,09,34,12.40
2014,06,14,09,35,12.40
2014,06,14,09,36,12.40
2014,06,14,09,37,12.40
2014,06,14,09,38,12.40
2014,06,14,09,39,12.40
2014,06,14,09,40,12.40
2014,06,14,09,41,12.40
2014,06,14,09,42,12.40
2014,06,14,09,43,12.40
2014,06,14,09,44,12.40
2014,06,14,09,45,12.40
2014,06,14,09,46,12.40
2014,06,14,09,47,12.40
2014,06,14,09,48,12.40
2014,06,14,09,49,12.40
2014,06,14,09,50,12.40
2014,06,14,09,51,12.40
2014,06,14,09,52,12.40
2014,06,14,09,53,12.40
2014,06,14,09,54,12.40
2014,06,14,09,55,12.40
2014,06,14,09,56,12.40
2014,06,14,09,57,12.40
2014,06,14,09,58,12.40
2014,06,14,09,59,12.40
2014,06,14,10,00,12.40
2014,06,14,10,01,12.40
2014,06,14,10,02,12.40
2014,06,14,10,03,12.30
2014,06,14,10,04,12.30
2014,06,14,10,05,12.30
2014,06,14,10,06,12.30
2014,06,14,10,07,12.30
2014,06,14,10,08,12.30
2014,06,14,10,09,12.30
2014,06,14,10,10,12.30
2014,06,14,10,11,12.30
2014,06,14,10,12,12.30
2014,06,14,10,13,12.30
2014,06,14,10,14,12.30
2014,06,14,10,15,12.30
2014,06,14,10,16,12.20
2014,06,14,10,17,12.20
2014,06,14,10,18,12.30
2014,06,14,10,19,12.30
2014,06,14,10,20,12.30
2014,06,14,10,21,12.30
2014,06,14,10,22,12.30
2014,06,14,10,23,12.30
2014,06,14,10,24,12.40
2014,06,14,10,25,12.40
2014,06,14,10,26,12.40
2014,06,14,10,27,12.30
2014,06,14,10,28,12.30
2014,06,14,10,29,12.40
2014,06,14,10,30,12.40
2014,06,14,10,31,12.40
2014,06,14,10,32,12.40
2014,06,14,10,33,12.40
2014,06,14,10,34,12.40
2014,06,14,10,35,12.40
2014,06,14,10,36,12.40
2014,06,14,10,37,12.40
2014,06,14,10,38,12.40
2014,06,14,10,39,12.50
2014,06,14,10,40,12.50
2014,06,14,10,41,12.50
2014,06,14,10,42,12.50
2014,06,14,10,43,12.50
2014,06,14,10,44,12.40
2014,06,14,10,45,12.40
2014,06,14,10,46,12.40
2014,06,14,10,47,12.40
2014,06,14,10,48,12.40
2014,06,14,10,49,12.40
2014,06,14,10,50,12.40
2014,06,14,10,51,12.40
2014,06,14,10,52,12.40
2014,06,14,10,53,12.30
2014,06,14,10,54,12.30
2014,06,14,10,55,12.30
2014,06,14,10,56,12.30
2014,06,14,10,57,12.30
2014,06,14,10,58,12.30
2014,06,14,10,59,12.30
2014,06,14,11,00,12.20
2014,06,14,11,01,12.20
2014,06,14,11,02,12.20
2014,06,14,11,03,12.20
2014,06,14,11,04,12.20
2014,06,14,11,05,12.10
2014,06,14,11,06,12.10
2014,06,14,11,07,12.10
2014,06,14,11,08,12.10
2014,06,14,11,09,12.10
2014,06,14,11,10,12.10
2014,06,14,11,11,12.10
2014,06,14,11,12,12.10
2014,06,14,11,13,12.10
2014,06,14,11,14,12.10
2014,06,14,11,15,12.10
2014,06,14,11,16,12.10
2014,06,14,11,17,12.10
2014,06,14,11,18,12.10
2014,06,14,11,19,12.10
2014,06,14,11,20,12.10
2014,06,14,11,21,12.10
2014,06,14,11,22,12.10
2014,06,14,11,23,12.10
2014,06,14,11,24,12.10
2014,06,14,11,25,12.10
2014,06,14,11,26,12.10
2014,06,14,11,27,12.10
2014,06,14,11,28,12.10
2014,06,14,11,29,12.10
2014,06,14,11,30,12.10
2014,06,14,11,31,12.10
2014,06,14,11,32,12.10
2014,06,14,11,33,12.10
2014,06,14,11,34,12.10
2014,06,14,11,35,12.10
2014,06,14,11,36,12.10
2014,06,14,11,37,12.10
2014,06,14,11,38,12.10
2014,06,14,11,39,12.10
2014,06,14,11,40,12.10
2014,06,14,11,41,12.10
2014,06,14,11,42,12.10
2014,06,14,11,43,12.10
2014,06,14,11,44,12.10
2014,06,14,11,45,12.10
2014,06,14,11,46,12.10
2014,06,14,11,47,12.10
2014,06,14,11,48,12.10
2014,06,14,11,49,12.10
2014,06,14,11,50,12.10
2014,06,14,11,51,12.10
2014,06,14,11,52,12.10
2014,06,14,11,53,12.10
2014,06,14,11,54,12.10
2014,06,14,11,55,12.20
2014,06,14,11,56,12.20
2014,06,14,11,57,12.20
2014,06,14,11,58,12.20
2014,06,14,11,59,12.20
2014,06,14,12,00,12.20
2014,06,14,12,01,12.20
2014,06,14,12,02,12.20
2014,06,14,12,03,12.20
2014,06,14,12,04,12.20
2014,06,14,12,05,12.20
2014,06,14,12,06,12.20
2014,06,14,12,07,12.20
2014,06,14,12,08,12.20
2014,06,14,12,09,12.20
2014,06,14,12,10,12.20
2014,06,14,12,11,12.20
2014,06,14,12,12,12.20
2014,06,14,12,13,12.20
2014,06,14,12,14,12.20
2014,06,14,12,15,12.20
2014,06,14,12,16,12.20
2014,06,14,12,17,12.20
2014,06,14,12,18,12.20
2014,06,14,12,19,12.20
2014,06,14,12,20,12.30
2014,06,14,12,21,12.30
2014,06,14,12,22,12.30
2014,06,14,12,23,12.30
2014,06,14,12,24,12.20
2014,06,14,12,25,12.20
2014,06,14,12,26,12.20
2014,06,14,12,27,12.20
2014,06,14,12,28,12.20
2014,06,14,12,29,12.20
2014,06,14,12,30,12.20
2014,06,14,12,31,12.20
2014,06,14,12,32,12.20
2014,06,14,12,33,12.20
2014,06,14,12,34,12.20
2014,06,14,12,35,12.30
2014,06,14,12,36,12.30
2014,06,14,12,37,12.30
2014,06,14,12,38,12.30
2014,06,14,12,39,12.30
2014,06,14,12,40,12.30
2014,06,14,12,41,12.30
2014,06,14,12,42,12.30
2014,06,14,12,43,12.30
2014,06,14,12,44,12.30
2014,06,14,12,45,12.30
2014,06,14,12,46,12.30
2014,06,14,12,47,12.30
2014,06,14,12,48,12.30
2014,06,14,12,49,12.30
2014,06,14,12,50,12.40
2014,06,14,12,51,12.40
2014,06,14,12,52,12.40
2014,06,14,12,53,12.40
2014,06,14,12,54,12.50
2014,06,14,12,55,12.50
2014,06,14,12,56,12.50
2014,06,14,12,57,12.60
2014,06,14,12,58,12.60
2014,06,14,12,59,12.60
2014,06,14,13,00,12.60
2014,06,14,13,01,12.60
2014,06,14,13,02,12.60
2014,06,14,13,03,12.60
2014,06,14,13,04,12.60
2014,06,14,13,05,12.60
2014,06,14,13,06,12.60
2014,06,14,13,07,12.60
2014,06,14,13,08,12.60
2014,06,14,13,09,12.60
2014,06,14,13,10,12.70
2014,06,14,13,11,12.70
2014,06,14,13,12,12.70
2014,06,14,13,13,12.70
2014,06,14,13,14,12.70
2014,06,14,13,15,12.70
2014,06,14,13,16,12.70
2014,06,14,13,17,12.70
2014,06,14,13,18,12.70
2014,06,14,13,19,12.70
2014,06,14,13,20,12.70
2014,06,14,13,21,12.70
2014,06,14,13,22,12.70
2014,06,14,13,23,12.70
2014,06,14,13,24,12.70
2014,06,14,13,25,12.80
2014,06,14,13,26,12.80
2014,06,14,13,27,12.80
2014,06,14,13,28,12.90
2014,06,14,13,29,12.90
2014,06,14,13,30,12.90
2014,06,14,13,31,12.80
2014,06,14,13,32,12.80
2014,06,14,13,33,12.80
2014,06,14,13,34,12.80
2014,06,14,13,35,12.80
2014,06,14,13,36,12.80
2014,06,14,13,37,12.80
2014,06,14,13,38,12.70
2014,06,14,13,39,12.70
2014,06,14,13,40,12.70
2014,06,14,13,41,12.70
2014,06,14,13,42,12.70
2014,06,14,13,43,12.70
2014,06,14,13,44,12.80
2014,06,14,13,45,12.80
2014,06,14,13,46,12.80
2014,06,14,13,47,12.80
2014,06,14,13,48,12.80
2014,06,14,13,49,12.80
2014,06,14,13,50,12.80
2014,06,14,13,51,12.80
2014,06,14,13,52,12.80
2014,06,14,13,53,12.80
2014,06,14,13,54,12.80
2014,06,14,13,55,12.80
2014,06,14,13,56,12.80
2014,06,14,13,57,12.90
2014,06,14,13,58,12.90
2014,06,14,13,59,12.90
2014,06,14,14,00,12.90
2014,06,14,14,01,12.90
2014,06,14,14,02,12.90
2014,06,14,14,03,12.90
2014,06,14,14,04,12.90
2014,06,14,14,05,13.00
2014,06,14,14,06,13.00
2014,06,14,14,07,13.10
2014,06,14,14,08,13.20
2014,06,14,14,09,13.20
2014,06,14,14,10,13.30
2014,06,14,14,11,13.30
2014,06,14,14,12,13.40
2014,06,14,14,13,13.50
2014,06,14,14,14,13.50
2014,06,14,14,15,13.60
2014,06,14,14,16,13.60
2014,06,14,14,17,13.70
2014,06,14,14,18,13.70
2014,06,14,14,19,13.70
2014,06,14,14,20,13.70
2014,06,14,14,21,13.70
2014,06,14,14,22,13.70
2014,06,14,14,23,13.70
2014,06,14,14,24,13.70
2014,06,14,14,25,13.70
2014,06,14,14,26,13.70
2014,06,14,14,27,13.70
2014,06,14,14,28,13.70
2014,06,14,14,29,13.70
2014,06,14,14,30,13.70
2014,06,14,14,31,13.70
2014,06,14,14,32,13.80
2014,06,14,14,33,13.80
2014,06,14,14,34,13.80
2014,06,14,14,35,13.80
2014,06,14,14,36,13.90
2014,06,14,14,37,13.90
2014,06,14,14,38,13.90
2014,06,14,14,39,13.90
2014,06,14,14,40,13.90
2014,06,14,14,41,13.90
2014,06,14,14,42,13.80
2014,06,14,14,43,13.80
2014,06,14,14,44,13.90
2014,06,14,14,45,13.90
2014,06,14,14,46,13.90
2014,06,14,14,47,13.90
2014,06,14,14,48,13.90
2014,06,14,14,49,13.90
2014,06,14,14,50,13.90
2014,06,14,14,51,14.00
2014,06,14,14,52,14.10
2014,06,14,14,53,14.20
2014,06,14,14,54,14.10
2014,06,14,14,55,14.10
2014,06,14,14,56,14.10
2014,06,14,14,57,14.20
2014,06,14,14,58,14.30
2014,06,14,14,59,14.30
2014,06,14,15,00,14.40
2014,06,14,15,01,14.50
2014,06,14,15,02,14.50
2014,06,14,15,03,14.60
2014,06,14,15,04,14.70
2014,06,14,15,05,14.70
2014,06,14,15,06,14.70
2014,06,14,15,07,14.80
2014,06,14,15,08,14.90
2014,06,14,15,09,15.00
2014,06,14,15,10,15.00
2014,06,14,15,11,15.00
2014,06,14,15,12,15.00
2014,06,14,15,13,15.00
2014,06,14,15,14,15.00
2014,06,14,15,15,15.00
2014,06,14,15,16,15.00
2014,06,14,15,17,15.00
2014,06,14,15,18,15.00
2014,06,14,15,19,15.00
2014,06,14,15,20,15.00
2014,06,14,15,21,15.00
2014,06,14,15,22,15.00
2014,06,14,15,23,15.00
2014,06,14,15,24,15.20
2014,06,14,15,25,15.30
2014,06,14,15,26,15.30
2014,06,14,15,27,15.30
2014,06,14,15,28,15.40
2014,06,14,15,29,15.40
2014,06,14,15,30,15.40
2014,06,14,15,31,15.50
2014,06,14,15,32,15.50
2014,06,14,15,33,15.50
2014,06,14,15,34,15.50
2014,06,14,15,35,15.50
2014,06,14,15,36,15.50
2014,06,14,15,37,15.50
2014,06,14,15,38,15.50
2014,06,14,15,39,15.50
2014,06,14,15,40,15.60
2014,06,14,15,41,15.60
2014,06,14,15,42,15.70
2014,06,14,15,43,15.80
2014,06,14,15,44,15.80
2014,06,14,15,45,15.90
2014,06,14,15,46,15.90
2014,06,14,15,47,15.90
2014,06,14,15,48,15.90
2014,06,14,15,49,16.00
2014,06,14,15,50,16.00
2014,06,14,15,51,16.10
2014,06,14,15,52,16.10
2014,06,14,15,53,16.10
2014,06,14,15,54,16.10
2014,06,14,15,55,16.10
2014,06,14,15,56,16.10
2014,06,14,15,57,16.10
2014,06,14,15,58,16.10
2014,06,14,15,59,16.00
2014,06,14,16,00,16.00
2014,06,14,16,01,16.00
2014,06,14,16,02,16.00
2014,06,14,16,03,16.00
2014,06,14,16,04,16.00
2014,06,14,16,05,16.00
2014,06,14,16,06,16.00
2014,06,14,16,07,16.00
2014,06,14,16,08,16.00
2014,06,14,16,09,16.00
2014,06,14,16,10,16.10
2014,06,14,16,11,16.10
2014,06,14,16,12,16.10
2014,06,14,16,13,16.10
2014,06,14,16,14,16.10
2014,06,14,16,15,16.20
2014,06,14,16,16,16.20
2014,06,14,16,17,16.30
2014,06,14,16,18,16.30
2014,06,14,16,19,16.40
2014,06,14,16,20,16.50
2014,06,14,16,21,16.50
2014,06,14,16,22,16.60
2014,06,14,16,23,16.60
2014,06,14,16,24,16.60
2014,06,14,16,25,16.60
2014,06,14,16,26,16.60
2014,06,14,16,27,16.60
2014,06,14,16,28,16.50
2014,06,14,16,29,16.50
2014,06,14,16,30,16.50
2014,06,14,16,31,16.50
2014,06,14,16,32,16.40
2014,06,14,16,33,16.40
2014,06,14,16,34,16.40
2014,06,14,16,35,16.40
2014,06,14,16,36,16.40
2014,06,14,16,37,16.40
2014,06,14,16,38,16.30
2014,06,14,16,39,16.30
2014,06,14,16,40,16.30
2014,06,14,16,41,16.30
2014,06,14,16,42,16.30
2014,06,14,16,43,16.30
2014,06,14,16,44,16.30
2014,06,14,16,45,16.30
2014,06,14,16,46,16.40
2014,06,14,16,47,16.40
2014,06,14,16,48,16.40
2014,06,14,16,49,16.40
2014,06,14,16,50,16.50
2014,06,14,16,51,16.50
2014,06,14,16,52,16.50
2014,06,14,16,53,16.50
2014,06,14,16,54,16.50
2014,06,14,16,55,16.40
2014,06,14,16,56,16.40
2014,06,14,16,57,16.40
2014,06,14,16,58,16.40
2014,06,14,16,59,16.40
2014,06,14,17,00,16.40
2014,06,14,17,01,16.30
2014,06,14,17,02,16.30
2014,06,14,17,03,16.30
2014,06,14,17,04,16.30
2014,06,14,17,05,16.20
2014,06,14,17,06,16.20
2014,06,14,17,07,16.20
2014,06,14,17,08,16.20
2014,06,14,17,09,16.20
2014,06,14,17,10,16.10
2014,06,14,17,11,16.10
2014,06,14,17,12,16.20
2014,06,14,17,13,16.20
2014,06,14,17,14,16.20
2014,06,14,17,15,16.30
2014,06,14,17,16,16.30
2014,06,14,17,17,16.40
2014,06,14,17,18,16.40
2014,06,14,17,19,16.40